Regional Weather Roundup
Issued by NWS Goodland, KS

Home | Current Version | Previous Version | Graphics & Text | Print | Product List | Glossary On
Versions: 1 2 3 4 5 6 7 8 9 10 11 12 13 14 15 16 17 18 19 20 21 22 23 24 25 26 27 28 29 30 31 32 33 34 35 36 37 38 39 40 41 42 43 44 45 46 47 48 49 50
000
ASUS43 KGLD 312108
RWRGLD

GOODLAND FORECAST AREA HOURLY WEATHER ROUNDUP
NATIONAL WEATHER SERVICE GOODLAND KS
300 PM MDT TUE MAY 31 2016

...OFFICIAL OBSERVATIONS...

CITY           SKY/WX    TMP DP  RH WIND       PRES   REMARKS
GOODLAND KS    SUNNY     68  47  46 E12       30.03F
HILL CITY KS   SUNNY     75  52  44 NE10G17   29.99F
IMPERIAL NEB   MOSUNNY   69  46  43 N10       30.04F
MCCOOK NEB     SUNNY     72  44  36 N5        30.01F
AKRON CO       PTSUNNY   63  45  51 SE5       30.07F
BURLINGTON CO  SUNNY     71  45  39 E6        30.05F
LIMON CO       MOSUNNY   65  49  56 SE10      30.07F
$$

...UNOFFICIAL OBSERVATIONS...

CITY           SKY/WX    TMP DP  RH WIND       PRES   REMARKS
GOVE KS          N/A     74  32  21 MISG        N/A
LENORA KS        N/A     72  32  23 MISG        N/A
SHARON SPRINGS   N/A     71  55  56 CALM        N/A
TRIBUNE KS     MOSUNNY   72  54  53 N10       30.04
KIT CARSON CO    N/A     69  51  51 MISG        N/A
YUMA CO          N/A     66  49  55 E12         N/A
$$




USA.gov is the U.S. government's official web portal to all federal, state and local government web resources and services.